Year,Month,Day,Hour,Minute,Value (Times are PST for temperature in C)
2010,07,14,00,00,14.40
2010,07,14,00,01,14.30
2010,07,14,00,02,14.30
2010,07,14,00,03,14.30
2010,07,14,00,04,14.30
2010,07,14,00,05,14.30
2010,07,14,00,06,14.30
2010,07,14,00,07,14.30
2010,07,14,00,08,14.30
2010,07,14,00,09,14.30
2010,07,14,00,10,14.30
2010,07,14,00,11,14.30
2010,07,14,00,12,14.30
2010,07,14,00,13,14.30
2010,07,14,00,14,14.20
2010,07,14,00,15,14.20
2010,07,14,00,16,14.20
2010,07,14,00,17,14.20
2010,07,14,00,18,14.20
2010,07,14,00,19,14.20
2010,07,14,00,20,14.20
2010,07,14,00,21,14.20
2010,07,14,00,22,14.20
2010,07,14,00,23,14.20
2010,07,14,00,24,14.20
2010,07,14,00,25,14.10
2010,07,14,00,26,14.10
2010,07,14,00,27,14.10
2010,07,14,00,28,14.10
2010,07,14,00,29,14.00
2010,07,14,00,30,14.00
2010,07,14,00,31,14.00
2010,07,14,00,32,13.90
2010,07,14,00,33,13.90
2010,07,14,00,34,13.90
2010,07,14,00,35,13.80
2010,07,14,00,36,13.80
2010,07,14,00,37,13.80
2010,07,14,00,38,13.80
2010,07,14,00,39,13.80
2010,07,14,00,40,13.70
2010,07,14,00,41,13.70
2010,07,14,00,42,13.70
2010,07,14,00,43,13.70
2010,07,14,00,44,13.60
2010,07,14,00,45,13.60
2010,07,14,00,46,13.60
2010,07,14,00,47,13.60
2010,07,14,00,48,13.60
2010,07,14,00,49,13.60
2010,07,14,00,50,13.60
2010,07,14,00,51,13.60
2010,07,14,00,52,13.60
2010,07,14,00,53,13.60
2010,07,14,00,54,13.50
2010,07,14,00,55,13.50
2010,07,14,00,56,13.50
2010,07,14,00,57,13.50
2010,07,14,00,58,13.40
2010,07,14,00,59,13.40
2010,07,14,01,00,13.40
2010,07,14,01,01,13.40
2010,07,14,01,02,13.40
2010,07,14,01,03,13.40
2010,07,14,01,04,13.30
2010,07,14,01,05,13.30
2010,07,14,01,06,13.30
2010,07,14,01,07,13.30
2010,07,14,01,08,13.30
2010,07,14,01,09,13.30
2010,07,14,01,10,13.30
2010,07,14,01,11,13.30
2010,07,14,01,12,13.30
2010,07,14,01,13,13.30
2010,07,14,01,14,13.30
2010,07,14,01,15,13.30
2010,07,14,01,16,13.30
2010,07,14,01,17,13.30
2010,07,14,01,18,13.30
2010,07,14,01,19,13.30
2010,07,14,01,20,13.30
2010,07,14,01,21,13.40
2010,07,14,01,22,13.40
2010,07,14,01,23,13.40
2010,07,14,01,24,13.40
2010,07,14,01,25,13.40
2010,07,14,01,26,13.40
2010,07,14,01,27,13.40
2010,07,14,01,28,13.40
2010,07,14,01,29,13.40
2010,07,14,01,30,13.40
2010,07,14,01,31,13.40
2010,07,14,01,32,13.40
2010,07,14,01,33,13.40
2010,07,14,01,34,13.40
2010,07,14,01,35,13.40
2010,07,14,01,36,13.40
2010,07,14,01,37,13.40
2010,07,14,01,38,13.40
2010,07,14,01,39,13.40
2010,07,14,01,40,13.40
2010,07,14,01,41,13.40
2010,07,14,01,42,13.40
2010,07,14,01,43,13.40
2010,07,14,01,44,13.40
2010,07,14,01,45,13.40
2010,07,14,01,46,13.40
2010,07,14,01,47,13.40
2010,07,14,01,48,13.40
2010,07,14,01,49,13.40
2010,07,14,01,50,13.50
2010,07,14,01,51,13.50
2010,07,14,01,52,13.50
2010,07,14,01,53,13.50
2010,07,14,01,54,13.50
2010,07,14,01,55,13.50
2010,07,14,01,56,13.50
2010,07,14,01,57,13.50
2010,07,14,01,58,13.50
2010,07,14,01,59,13.50
2010,07,14,02,00,13.50
2010,07,14,02,01,13.50
2010,07,14,02,02,13.50
2010,07,14,02,03,13.50
2010,07,14,02,04,13.50
2010,07,14,02,05,13.50
2010,07,14,02,06,13.50
2010,07,14,02,07,13.50
2010,07,14,02,08,13.50
2010,07,14,02,09,13.50
2010,07,14,02,10,13.40
2010,07,14,02,11,13.40
2010,07,14,02,12,13.40
2010,07,14,02,13,13.40
2010,07,14,02,14,13.40
2010,07,14,02,15,13.40
2010,07,14,02,16,13.40
2010,07,14,02,17,13.40
2010,07,14,02,18,13.40
2010,07,14,02,19,13.40
2010,07,14,02,20,13.40
2010,07,14,02,21,13.40
2010,07,14,02,22,13.40
2010,07,14,02,23,13.40
2010,07,14,02,24,13.30
2010,07,14,02,25,13.30
2010,07,14,02,26,13.30
2010,07,14,02,27,13.30
2010,07,14,02,28,13.30
2010,07,14,02,29,13.30
2010,07,14,02,30,13.30
2010,07,14,02,31,13.30
2010,07,14,02,32,13.30
2010,07,14,02,33,13.20
2010,07,14,02,34,13.20
2010,07,14,02,35,13.20
2010,07,14,02,36,13.20
2010,07,14,02,37,13.20
2010,07,14,02,38,13.20
2010,07,14,02,39,13.20
2010,07,14,02,40,13.20
2010,07,14,02,41,13.20
2010,07,14,02,42,13.10
2010,07,14,02,43,13.10
2010,07,14,02,44,13.10
2010,07,14,02,45,13.10
2010,07,14,02,46,13.10
2010,07,14,02,47,13.10
2010,07,14,02,48,13.10
2010,07,14,02,49,13.10
2010,07,14,02,50,13.10
2010,07,14,02,51,13.10
2010,07,14,02,52,13.00
2010,07,14,02,53,13.00
2010,07,14,02,54,13.00
2010,07,14,02,55,13.00
2010,07,14,02,56,13.00
2010,07,14,02,57,13.00
2010,07,14,02,58,13.00
2010,07,14,02,59,12.90
2010,07,14,03,00,12.90
2010,07,14,03,01,12.90
2010,07,14,03,02,12.90
2010,07,14,03,03,12.90
2010,07,14,03,04,12.90
2010,07,14,03,05,12.80
2010,07,14,03,06,12.80
2010,07,14,03,07,12.80
2010,07,14,03,08,12.80
2010,07,14,03,09,12.80
2010,07,14,03,10,12.70
2010,07,14,03,11,12.70
2010,07,14,03,12,12.70
2010,07,14,03,13,12.70
2010,07,14,03,14,12.70
2010,07,14,03,15,12.60
2010,07,14,03,16,12.60
2010,07,14,03,17,12.60
2010,07,14,03,18,12.60
2010,07,14,03,19,12.50
2010,07,14,03,20,12.50
2010,07,14,03,21,12.50
2010,07,14,03,22,12.40
2010,07,14,03,23,12.40
2010,07,14,03,24,12.40
2010,07,14,03,25,12.40
2010,07,14,03,26,12.30
2010,07,14,03,27,12.30
2010,07,14,03,28,12.30
2010,07,14,03,29,12.20
2010,07,14,03,30,12.20
2010,07,14,03,31,12.20
2010,07,14,03,32,12.20
2010,07,14,03,33,12.10
2010,07,14,03,34,12.10
2010,07,14,03,35,12.10
2010,07,14,03,36,12.00
2010,07,14,03,37,12.00
2010,07,14,03,38,12.00
2010,07,14,03,39,11.90
2010,07,14,03,40,11.90
2010,07,14,03,41,11.90
2010,07,14,03,42,11.90
2010,07,14,03,43,11.80
2010,07,14,03,44,11.80
2010,07,14,03,45,11.80
2010,07,14,03,46,11.80
2010,07,14,03,47,11.70
2010,07,14,03,48,11.70
2010,07,14,03,49,11.70
2010,07,14,03,50,11.70
2010,07,14,03,51,11.70
2010,07,14,03,52,11.60
2010,07,14,03,53,11.60
2010,07,14,03,54,11.60
2010,07,14,03,55,11.60
2010,07,14,03,56,11.50
2010,07,14,03,57,11.50
2010,07,14,03,58,11.50
2010,07,14,03,59,11.40
2010,07,14,04,00,11.40
2010,07,14,04,01,11.40
2010,07,14,04,02,11.40
2010,07,14,04,03,11.40
2010,07,14,04,04,11.30
2010,07,14,04,05,11.30
2010,07,14,04,06,11.30
2010,07,14,04,07,11.30
2010,07,14,04,08,11.30
2010,07,14,04,09,11.30
2010,07,14,04,10,11.30
2010,07,14,04,11,11.20
2010,07,14,04,12,11.20
2010,07,14,04,13,11.20
2010,07,14,04,14,11.20
2010,07,14,04,15,11.20
2010,07,14,04,16,11.10
2010,07,14,04,17,11.10
2010,07,14,04,18,11.10
2010,07,14,04,19,11.10
2010,07,14,04,20,11.00
2010,07,14,04,21,11.00
2010,07,14,04,22,11.00
2010,07,14,04,23,10.90
2010,07,14,04,24,10.90
2010,07,14,04,25,10.90
2010,07,14,04,26,10.90
2010,07,14,04,27,10.80
2010,07,14,04,28,10.80
2010,07,14,04,29,10.80
2010,07,14,04,30,10.80
2010,07,14,04,31,10.80
2010,07,14,04,32,10.80
2010,07,14,04,33,10.70
2010,07,14,04,34,10.70
2010,07,14,04,35,10.70
2010,07,14,04,36,10.70
2010,07,14,04,37,10.70
2010,07,14,04,38,10.70
2010,07,14,04,39,10.70
2010,07,14,04,40,10.70
2010,07,14,04,41,10.70
2010,07,14,04,42,10.60
2010,07,14,04,43,10.60
2010,07,14,04,44,10.60
2010,07,14,04,45,10.60
2010,07,14,04,46,10.60
2010,07,14,04,47,10.60
2010,07,14,04,48,10.50
2010,07,14,04,49,10.50
2010,07,14,04,50,10.50
2010,07,14,04,51,10.40
2010,07,14,04,52,10.40
2010,07,14,04,53,10.40
2010,07,14,04,54,10.40
2010,07,14,04,55,10.40
2010,07,14,04,56,10.40
2010,07,14,04,57,10.40
2010,07,14,04,58,10.40
2010,07,14,04,59,10.30
2010,07,14,05,00,10.30
2010,07,14,05,01,10.30
2010,07,14,05,02,10.30
2010,07,14,05,03,10.30
2010,07,14,05,04,10.30
2010,07,14,05,05,10.30
2010,07,14,05,06,10.30
2010,07,14,05,07,10.30
2010,07,14,05,08,10.30
2010,07,14,05,09,10.30
2010,07,14,05,10,10.40
2010,07,14,05,11,10.40
2010,07,14,05,12,10.40
2010,07,14,05,13,10.40
2010,07,14,05,14,10.40
2010,07,14,05,15,10.40
2010,07,14,05,16,10.40
2010,07,14,05,17,10.40
2010,07,14,05,18,10.30
2010,07,14,05,19,10.40
2010,07,14,05,20,10.40
2010,07,14,05,21,10.40
2010,07,14,05,22,10.40
2010,07,14,05,23,10.30
2010,07,14,05,24,10.30
2010,07,14,05,25,10.30
2010,07,14,05,26,10.40
2010,07,14,05,27,10.40
2010,07,14,05,28,10.40
2010,07,14,05,29,10.40
2010,07,14,05,30,10.40
2010,07,14,05,31,10.40
2010,07,14,05,32,10.40
2010,07,14,05,33,10.30
2010,07,14,05,34,10.30
2010,07,14,05,35,10.30
2010,07,14,05,36,10.30
2010,07,14,05,37,10.30
2010,07,14,05,38,10.30
2010,07,14,05,39,10.30
2010,07,14,05,40,10.30
2010,07,14,05,41,10.30
2010,07,14,05,42,10.30
2010,07,14,05,43,10.30
2010,07,14,05,44,10.20
2010,07,14,05,45,10.30
2010,07,14,05,46,10.30
2010,07,14,05,47,10.20
2010,07,14,05,48,10.20
2010,07,14,05,49,10.20
2010,07,14,05,50,10.20
2010,07,14,05,51,10.20
2010,07,14,05,52,10.20
2010,07,14,05,53,10.20
2010,07,14,05,54,10.20
2010,07,14,05,55,10.20
2010,07,14,05,56,10.10
2010,07,14,05,57,10.10
2010,07,14,05,58,10.10
2010,07,14,05,59,10.10
2010,07,14,06,00,10.10
2010,07,14,06,01,10.10
2010,07,14,06,02,10.10
2010,07,14,06,03,10.10
2010,07,14,06,04,10.10
2010,07,14,06,05,10.10
2010,07,14,06,06,10.10
2010,07,14,06,07,10.10
2010,07,14,06,08,10.10
2010,07,14,06,09,10.10
2010,07,14,06,10,10.10
2010,07,14,06,11,10.10
2010,07,14,06,12,10.10
2010,07,14,06,13,10.20
2010,07,14,06,14,10.20
2010,07,14,06,15,10.20
2010,07,14,06,16,10.20
2010,07,14,06,17,10.20
2010,07,14,06,18,10.30
2010,07,14,06,19,10.30
2010,07,14,06,20,10.30
2010,07,14,06,21,10.40
2010,07,14,06,22,10.40
2010,07,14,06,23,10.40
2010,07,14,06,24,10.50
2010,07,14,06,25,10.50
2010,07,14,06,26,10.60
2010,07,14,06,27,10.60
2010,07,14,06,28,10.70
2010,07,14,06,29,10.70
2010,07,14,06,30,10.80
2010,07,14,06,31,10.80
2010,07,14,06,32,10.90
2010,07,14,06,33,10.90
2010,07,14,06,34,11.00
2010,07,14,06,35,11.10
2010,07,14,06,36,11.20
2010,07,14,06,37,11.20
2010,07,14,06,38,11.30
2010,07,14,06,39,11.40
2010,07,14,06,40,11.40
2010,07,14,06,41,11.50
2010,07,14,06,42,11.60
2010,07,14,06,43,11.60
2010,07,14,06,44,11.70
2010,07,14,06,45,11.70
2010,07,14,06,46,11.80
2010,07,14,06,47,11.80
2010,07,14,06,48,11.90
2010,07,14,06,49,12.00
2010,07,14,06,50,12.00
2010,07,14,06,51,12.10
2010,07,14,06,52,12.10
2010,07,14,06,53,12.20
2010,07,14,06,54,12.30
2010,07,14,06,55,12.40
2010,07,14,06,56,12.40
2010,07,14,06,57,12.50
2010,07,14,06,58,12.60
2010,07,14,06,59,12.70
2010,07,14,07,00,12.80
2010,07,14,07,01,12.80
2010,07,14,07,02,12.80
2010,07,14,07,03,12.90
2010,07,14,07,04,12.90
2010,07,14,07,05,12.90
2010,07,14,07,06,12.90
2010,07,14,07,07,13.00
2010,07,14,07,08,13.00
2010,07,14,07,09,13.10
2010,07,14,07,10,13.10
2010,07,14,07,11,13.10
2010,07,14,07,12,13.10
2010,07,14,07,13,13.10
2010,07,14,07,14,13.20
2010,07,14,07,15,13.20
2010,07,14,07,16,13.20
2010,07,14,07,17,13.20
2010,07,14,07,18,13.20
2010,07,14,07,19,13.20
2010,07,14,07,20,13.20
2010,07,14,07,21,13.20
2010,07,14,07,22,13.20
2010,07,14,07,23,13.20
2010,07,14,07,24,13.20
2010,07,14,07,25,13.30
2010,07,14,07,26,13.30
2010,07,14,07,27,13.30
2010,07,14,07,28,13.40
2010,07,14,07,29,13.40
2010,07,14,07,30,13.40
2010,07,14,07,31,13.50
2010,07,14,07,32,13.50
2010,07,14,07,33,13.60
2010,07,14,07,34,13.60
2010,07,14,07,35,13.70
2010,07,14,07,36,13.70
2010,07,14,07,37,13.70
2010,07,14,07,38,13.80
2010,07,14,07,39,13.90
2010,07,14,07,40,13.90
2010,07,14,07,41,14.00
2010,07,14,07,42,14.10
2010,07,14,07,43,14.10
2010,07,14,07,44,14.20
2010,07,14,07,45,14.20
2010,07,14,07,46,14.20
2010,07,14,07,47,14.20
2010,07,14,07,48,14.20
2010,07,14,07,49,14.20
2010,07,14,07,50,14.10
2010,07,14,07,51,14.10
2010,07,14,07,52,14.10
2010,07,14,07,53,14.00
2010,07,14,07,54,14.00
2010,07,14,07,55,13.90
2010,07,14,07,56,13.90
2010,07,14,07,57,13.90
2010,07,14,07,58,13.90
2010,07,14,07,59,13.80
2010,07,14,08,00,13.80
2010,07,14,08,01,13.80
2010,07,14,08,02,13.80
2010,07,14,08,03,13.80
2010,07,14,08,04,13.80
2010,07,14,08,05,13.80
2010,07,14,08,06,13.70
2010,07,14,08,07,13.70
2010,07,14,08,08,13.70
2010,07,14,08,09,13.70
2010,07,14,08,10,13.70
2010,07,14,08,11,13.70
2010,07,14,08,12,13.70
2010,07,14,08,13,13.70
2010,07,14,08,14,13.70
2010,07,14,08,15,13.70
2010,07,14,08,16,13.80
2010,07,14,08,17,13.80
2010,07,14,08,18,13.80
2010,07,14,08,19,13.80
2010,07,14,08,20,13.80
2010,07,14,08,21,13.80
2010,07,14,08,22,13.90
2010,07,14,08,23,13.90
2010,07,14,08,24,13.90
2010,07,14,08,25,14.00
2010,07,14,08,26,14.00
2010,07,14,08,27,14.10
2010,07,14,08,28,14.10
2010,07,14,08,29,14.10
2010,07,14,08,30,14.10
2010,07,14,08,31,14.10
2010,07,14,08,32,14.10
2010,07,14,08,33,14.10
2010,07,14,08,34,14.10
2010,07,14,08,35,14.10
2010,07,14,08,36,14.10
2010,07,14,08,37,14.10
2010,07,14,08,38,14.10
2010,07,14,08,39,14.10
2010,07,14,08,40,14.10
2010,07,14,08,41,14.10
2010,07,14,08,42,14.10
2010,07,14,08,43,14.10
2010,07,14,08,44,14.10
2010,07,14,08,45,14.20
2010,07,14,08,46,14.20
2010,07,14,08,47,14.20
2010,07,14,08,48,14.20
2010,07,14,08,49,14.20
2010,07,14,08,50,14.20
2010,07,14,08,51,14.20
2010,07,14,08,52,14.20
2010,07,14,08,53,14.20
2010,07,14,08,54,14.20
2010,07,14,08,55,14.20
2010,07,14,08,56,14.20
2010,07,14,08,57,14.20
2010,07,14,08,58,14.20
2010,07,14,08,59,14.20
2010,07,14,09,00,14.20
2010,07,14,09,01,14.20
2010,07,14,09,02,14.30
2010,07,14,09,03,14.30
2010,07,14,09,04,14.30
2010,07,14,09,05,14.30
2010,07,14,09,06,14.40
2010,07,14,09,07,14.40
2010,07,14,09,08,14.40
2010,07,14,09,09,14.40
2010,07,14,09,10,14.40
2010,07,14,09,11,14.40
2010,07,14,09,12,14.40
2010,07,14,09,13,14.40
2010,07,14,09,14,14.40
2010,07,14,09,15,14.50
2010,07,14,09,16,14.50
2010,07,14,09,17,14.50
2010,07,14,09,18,14.50
2010,07,14,09,19,14.50
2010,07,14,09,20,14.50
2010,07,14,09,21,14.60
2010,07,14,09,22,14.60
2010,07,14,09,23,14.70
2010,07,14,09,24,14.70
2010,07,14,09,25,14.70
2010,07,14,09,26,14.70
2010,07,14,09,27,14.70
2010,07,14,09,28,14.70
2010,07,14,09,29,14.70
2010,07,14,09,30,14.80
2010,07,14,09,31,14.80
2010,07,14,09,32,14.80
2010,07,14,09,33,14.80
2010,07,14,09,34,14.80
2010,07,14,09,35,14.80
2010,07,14,09,36,14.70
2010,07,14,09,37,14.70
2010,07,14,09,38,14.70
2010,07,14,09,39,14.70
2010,07,14,09,40,14.70
2010,07,14,09,41,14.80
2010,07,14,09,42,14.80
2010,07,14,09,43,14.80
2010,07,14,09,44,14.80
2010,07,14,09,45,14.80
2010,07,14,09,46,14.80
2010,07,14,09,47,14.80
2010,07,14,09,48,14.80
2010,07,14,09,49,14.80
2010,07,14,09,50,14.80
2010,07,14,09,51,14.80
2010,07,14,09,52,14.70
2010,07,14,09,53,14.70
2010,07,14,09,54,14.70
2010,07,14,09,55,14.80
2010,07,14,09,56,14.80
2010,07,14,09,57,14.80
2010,07,14,09,58,14.80
2010,07,14,09,59,14.80
2010,07,14,10,00,14.70
2010,07,14,10,01,14.70
2010,07,14,10,02,14.70
2010,07,14,10,03,14.70
2010,07,14,10,04,14.70
2010,07,14,10,05,14.80
2010,07,14,10,06,14.80
2010,07,14,10,07,14.80
2010,07,14,10,08,14.80
2010,07,14,10,09,14.80
2010,07,14,10,10,14.70
2010,07,14,10,11,14.70
2010,07,14,10,12,14.70
2010,07,14,10,13,14.70
2010,07,14,10,14,14.70
2010,07,14,10,15,14.60
2010,07,14,10,16,14.60
2010,07,14,10,17,14.60
2010,07,14,10,18,14.60
2010,07,14,10,19,14.60
2010,07,14,10,20,14.60
2010,07,14,10,21,14.60
2010,07,14,10,22,14.60
2010,07,14,10,23,14.60
2010,07,14,10,24,14.60
2010,07,14,10,25,14.60
2010,07,14,10,26,14.60
2010,07,14,10,27,14.60
2010,07,14,10,28,14.70
2010,07,14,10,29,14.70
2010,07,14,10,30,14.70
2010,07,14,10,31,14.70
2010,07,14,10,32,14.80
2010,07,14,10,33,14.80
2010,07,14,10,34,14.80
2010,07,14,10,35,14.80
2010,07,14,10,36,14.90
2010,07,14,10,37,14.90
2010,07,14,10,38,15.00
2010,07,14,10,39,15.10
2010,07,14,10,40,15.10
2010,07,14,10,41,15.10
2010,07,14,10,42,15.20
2010,07,14,10,43,15.20
2010,07,14,10,44,15.20
2010,07,14,10,45,15.20
2010,07,14,10,46,15.20
2010,07,14,10,47,15.20
2010,07,14,10,48,15.20
2010,07,14,10,49,15.20
2010,07,14,10,50,15.30
2010,07,14,10,51,15.30
2010,07,14,10,52,15.30
2010,07,14,10,53,15.30
2010,07,14,10,54,15.30
2010,07,14,10,55,15.20
2010,07,14,10,56,15.20
2010,07,14,10,57,15.20
2010,07,14,10,58,15.20
2010,07,14,10,59,15.10
2010,07,14,11,00,15.10
2010,07,14,11,01,15.10
2010,07,14,11,02,15.10
2010,07,14,11,03,15.10
2010,07,14,11,04,15.10
2010,07,14,11,05,15.10
2010,07,14,11,06,15.10
2010,07,14,11,07,15.10
2010,07,14,11,08,15.10
2010,07,14,11,09,15.00
2010,07,14,11,10,15.00
2010,07,14,11,11,15.10
2010,07,14,11,12,15.10
2010,07,14,11,13,15.10
2010,07,14,11,14,15.10
2010,07,14,11,15,15.10
2010,07,14,11,16,15.20
2010,07,14,11,17,15.20
2010,07,14,11,18,15.30
2010,07,14,11,19,15.30
2010,07,14,11,20,15.40
2010,07,14,11,21,15.40
2010,07,14,11,22,15.50
2010,07,14,11,23,15.60
2010,07,14,11,24,15.60
2010,07,14,11,25,15.70
2010,07,14,11,26,15.70
2010,07,14,11,27,15.70
2010,07,14,11,28,15.70
2010,07,14,11,29,15.70
2010,07,14,11,30,15.70
2010,07,14,11,31,15.70
2010,07,14,11,32,15.80
2010,07,14,11,33,15.80
2010,07,14,11,34,15.80
2010,07,14,11,35,15.80
2010,07,14,11,36,15.80
2010,07,14,11,37,15.80
2010,07,14,11,38,15.80
2010,07,14,11,39,15.80
2010,07,14,11,40,15.80
2010,07,14,11,41,15.80
2010,07,14,11,42,15.80
2010,07,14,11,43,15.70
2010,07,14,11,44,15.70
2010,07,14,11,45,15.70
2010,07,14,11,46,15.60
2010,07,14,11,47,15.60
2010,07,14,11,48,15.60
2010,07,14,11,49,15.60
2010,07,14,11,50,15.60
2010,07,14,11,51,15.70
2010,07,14,11,52,15.70
2010,07,14,11,53,15.70
2010,07,14,11,54,15.70
2010,07,14,11,55,15.70
2010,07,14,11,56,15.70
2010,07,14,11,57,15.70
2010,07,14,11,58,15.80
2010,07,14,11,59,15.80
2010,07,14,12,00,15.80
2010,07,14,12,01,15.80
2010,07,14,12,02,15.90
2010,07,14,12,03,15.90
2010,07,14,12,04,16.00
2010,07,14,12,05,16.00
2010,07,14,12,13,16.20
2010,07,14,12,14,16.30
2010,07,14,12,15,16.30
2010,07,14,12,16,16.30
2010,07,14,12,17,16.30
2010,07,14,12,18,16.30
2010,07,14,12,19,16.40
2010,07,14,12,20,16.40
2010,07,14,12,21,16.50
2010,07,14,12,22,16.50
2010,07,14,12,23,16.60
2010,07,14,12,24,16.60
2010,07,14,12,25,16.70
2010,07,14,12,26,16.70
2010,07,14,12,27,16.70
2010,07,14,12,28,16.80
2010,07,14,12,29,16.90
2010,07,14,12,30,16.90
2010,07,14,12,31,17.00
2010,07,14,12,32,17.10
2010,07,14,12,33,17.10
2010,07,14,12,34,17.10
2010,07,14,12,35,17.20
2010,07,14,12,36,17.20
2010,07,14,12,37,17.20
2010,07,14,12,38,17.20
2010,07,14,12,39,17.20
2010,07,14,12,40,17.20
2010,07,14,12,41,17.20
2010,07,14,12,42,17.20
2010,07,14,12,43,17.20
2010,07,14,12,44,17.20
2010,07,14,12,45,17.20
2010,07,14,12,46,17.10
2010,07,14,12,47,17.10
2010,07,14,12,48,17.10
2010,07,14,12,49,17.10
2010,07,14,12,50,17.10
2010,07,14,12,51,17.10
2010,07,14,12,52,17.00
2010,07,14,12,53,17.00
2010,07,14,12,54,17.00
2010,07,14,12,55,16.90
2010,07,14,12,56,16.90
2010,07,14,12,57,16.90
2010,07,14,12,58,17.00
2010,07,14,12,59,17.00
2010,07,14,13,00,17.10
2010,07,14,13,01,17.10
2010,07,14,13,02,17.10
2010,07,14,13,03,17.10
2010,07,14,13,04,17.00
2010,07,14,13,05,17.00
2010,07,14,13,06,17.10
2010,07,14,13,07,17.10
2010,07,14,13,08,17.10
2010,07,14,13,09,17.00
2010,07,14,13,10,17.00
2010,07,14,13,11,16.90
2010,07,14,13,12,17.00
2010,07,14,13,13,17.00
2010,07,14,13,14,17.10
2010,07,14,13,15,17.10
2010,07,14,13,16,17.10
2010,07,14,13,17,17.10
2010,07,14,13,18,17.10
2010,07,14,13,19,17.10
2010,07,14,13,20,17.10
2010,07,14,13,21,17.10
2010,07,14,13,22,17.20
2010,07,14,13,23,17.30
2010,07,14,13,24,17.40
2010,07,14,13,25,17.50
2010,07,14,13,26,17.60
2010,07,14,13,27,17.70
2010,07,14,13,28,17.80
2010,07,14,13,29,17.90
2010,07,14,13,30,18.00
2010,07,14,13,31,18.10
2010,07,14,13,32,18.10
2010,07,14,13,33,18.20
2010,07,14,13,34,18.20
2010,07,14,13,35,18.20
2010,07,14,13,36,18.10
2010,07,14,13,37,18.00
2010,07,14,13,38,17.90
2010,07,14,13,39,17.80
2010,07,14,13,40,17.80
2010,07,14,13,41,17.70
2010,07,14,13,42,17.60
2010,07,14,13,43,17.50
2010,07,14,13,44,17.40
2010,07,14,13,45,17.30
2010,07,14,13,46,17.30
2010,07,14,13,47,17.30
2010,07,14,13,48,17.30
2010,07,14,13,49,17.30
2010,07,14,13,50,17.30
2010,07,14,13,51,17.30
2010,07,14,13,52,17.30
2010,07,14,13,53,17.40
2010,07,14,13,54,17.50
2010,07,14,13,55,17.60
2010,07,14,13,56,17.70
2010,07,14,13,57,17.80
2010,07,14,13,58,17.80
2010,07,14,13,59,17.80
2010,07,14,14,00,17.90
2010,07,14,14,01,17.90
2010,07,14,14,02,18.00
2010,07,14,14,03,18.00
2010,07,14,14,04,18.10
2010,07,14,14,05,18.10
2010,07,14,14,06,18.20
2010,07,14,14,07,18.20
2010,07,14,14,08,18.20
2010,07,14,14,09,18.30
2010,07,14,14,10,18.30
2010,07,14,14,11,18.20
2010,07,14,14,12,18.20
2010,07,14,14,13,18.10
2010,07,14,14,14,18.10
2010,07,14,14,15,18.10
2010,07,14,14,16,18.20
2010,07,14,14,17,18.30
2010,07,14,14,18,18.40
2010,07,14,14,19,18.50
2010,07,14,14,20,18.60
2010,07,14,14,21,18.60
2010,07,14,14,22,18.60
2010,07,14,14,23,18.50
2010,07,14,14,24,18.40
2010,07,14,14,25,18.30
2010,07,14,14,26,18.30
2010,07,14,14,27,18.20
2010,07,14,14,28,18.20
2010,07,14,14,29,18.10
2010,07,14,14,30,18.10
2010,07,14,14,31,18.10
2010,07,14,14,32,18.20
2010,07,14,14,33,18.20
2010,07,14,14,34,18.30
2010,07,14,14,35,18.30
2010,07,14,14,36,18.40
2010,07,14,14,37,18.40
2010,07,14,14,38,18.40
2010,07,14,14,39,18.30
2010,07,14,14,40,18.30
2010,07,14,14,41,18.30
2010,07,14,14,42,18.20
2010,07,14,14,43,18.20
2010,07,14,14,44,18.20
2010,07,14,14,45,18.20
2010,07,14,14,46,18.20
2010,07,14,14,47,18.10
2010,07,14,14,48,18.10
2010,07,14,14,49,18.10
2010,07,14,14,50,18.10
2010,07,14,14,51,18.00
2010,07,14,14,52,18.00
2010,07,14,14,53,18.00
2010,07,14,14,54,18.10
2010,07,14,14,55,18.10
2010,07,14,14,56,18.10
2010,07,14,14,57,18.10
2010,07,14,14,58,18.10
2010,07,14,14,59,18.10
2010,07,14,15,00,18.20
2010,07,14,15,01,18.30
2010,07,14,15,02,18.40
2010,07,14,15,03,18.50
2010,07,14,15,04,18.60
2010,07,14,15,05,18.70
2010,07,14,15,06,18.80
2010,07,14,15,07,18.90
2010,07,14,15,08,19.00
2010,07,14,15,09,19.10
2010,07,14,15,10,19.20
2010,07,14,15,11,19.30
2010,07,14,15,12,19.30
2010,07,14,15,13,19.40
2010,07,14,15,14,19.40
2010,07,14,15,15,19.50
2010,07,14,15,16,19.50
2010,07,14,15,17,19.60
2010,07,14,15,18,19.60
2010,07,14,15,19,19.50
2010,07,14,15,20,19.50
2010,07,14,15,21,19.50
2010,07,14,15,22,19.50
2010,07,14,15,23,19.50
2010,07,14,15,24,19.50
2010,07,14,15,25,19.50
2010,07,14,15,26,19.40
2010,07,14,15,27,19.40
2010,07,14,15,28,19.40
2010,07,14,15,29,19.50
2010,07,14,15,30,19.50
2010,07,14,15,31,19.60
2010,07,14,15,32,19.60
2010,07,14,15,33,19.70
2010,07,14,15,34,19.70
2010,07,14,15,35,19.80
2010,07,14,15,36,19.80
2010,07,14,15,37,19.80
2010,07,14,15,38,19.80
2010,07,14,15,39,19.80
2010,07,14,15,40,19.80
2010,07,14,15,41,19.90
2010,07,14,15,42,19.90
2010,07,14,15,43,19.90
2010,07,14,15,44,19.90
2010,07,14,15,45,19.80
2010,07,14,15,46,19.80
2010,07,14,15,47,19.70
2010,07,14,15,48,19.70
2010,07,14,15,49,19.70
2010,07,14,15,50,19.60
2010,07,14,15,51,19.60
2010,07,14,15,52,19.50
2010,07,14,15,53,19.50
2010,07,14,15,54,19.50
2010,07,14,15,55,19.50
2010,07,14,15,56,19.50
2010,07,14,15,57,19.60
2010,07,14,15,58,19.60
2010,07,14,15,59,19.60
2010,07,14,16,00,19.60
2010,07,14,16,01,19.60
2010,07,14,16,02,19.70
2010,07,14,16,03,19.70
2010,07,14,16,04,19.70
2010,07,14,16,05,19.70
2010,07,14,16,06,19.70
2010,07,14,16,07,19.60
2010,07,14,16,08,19.60
2010,07,14,16,09,19.60
2010,07,14,16,10,19.50
2010,07,14,16,11,19.50
2010,07,14,16,12,19.50
2010,07,14,16,13,19.40
2010,07,14,16,14,19.30
2010,07,14,16,15,19.30
2010,07,14,16,16,19.30
2010,07,14,16,17,19.20
2010,07,14,16,18,19.20
2010,07,14,16,19,19.20
2010,07,14,16,20,19.10
2010,07,14,16,21,19.10
2010,07,14,16,22,19.10
2010,07,14,16,23,19.10
2010,07,14,16,24,19.00
2010,07,14,16,25,19.00
2010,07,14,16,26,19.00
2010,07,14,16,27,19.00
2010,07,14,16,28,18.90
2010,07,14,16,29,18.90
2010,07,14,16,30,18.90
2010,07,14,16,31,18.90
2010,07,14,16,32,18.90
2010,07,14,16,33,18.90
2010,07,14,16,34,19.00
2010,07,14,16,35,19.00
2010,07,14,16,36,19.10
2010,07,14,16,37,19.10
2010,07,14,16,38,19.10
2010,07,14,16,39,19.20
2010,07,14,16,40,19.20
2010,07,14,16,41,19.20
2010,07,14,16,42,19.20
2010,07,14,16,43,19.20
2010,07,14,16,44,19.30
2010,07,14,16,45,19.30
2010,07,14,16,46,19.20
2010,07,14,16,47,19.20
2010,07,14,16,48,19.20
2010,07,14,16,49,19.10
2010,07,14,16,50,19.10
2010,07,14,16,51,19.10
2010,07,14,16,52,19.00
2010,07,14,16,53,19.00
2010,07,14,16,54,19.00
2010,07,14,16,55,19.00
2010,07,14,16,56,18.90
2010,07,14,16,57,18.80
2010,07,14,16,58,18.70
2010,07,14,16,59,18.60
2010,07,14,17,00,18.50
2010,07,14,17,01,18.40
2010,07,14,17,02,18.40
2010,07,14,17,03,18.40
2010,07,14,17,04,18.40
2010,07,14,17,05,18.40
2010,07,14,17,06,18.50
2010,07,14,17,07,18.50
2010,07,14,17,08,18.50
2010,07,14,17,09,18.60
2010,07,14,17,10,18.50
2010,07,14,17,11,18.50
2010,07,14,17,12,18.50
2010,07,14,17,13,18.40
2010,07,14,17,14,18.40
2010,07,14,17,15,18.40
2010,07,14,17,16,18.40
2010,07,14,17,17,18.40
2010,07,14,17,18,18.40
2010,07,14,17,19,18.30
2010,07,14,17,20,18.30
2010,07,14,17,21,18.20
2010,07,14,17,22,18.20
2010,07,14,17,23,18.20
2010,07,14,17,24,18.10
2010,07,14,17,25,18.10
2010,07,14,17,26,18.20